Year,Month,Day,Hour,Minute,Value (Times are PST for temperature in C)
2017,08,03,00,00,24.30
2017,08,03,00,01,24.30
2017,08,03,00,02,24.40
2017,08,03,00,03,24.40
2017,08,03,00,04,24.40
2017,08,03,00,05,24.50
2017,08,03,00,06,24.50
2017,08,03,00,07,24.50
2017,08,03,00,08,24.40
2017,08,03,00,09,24.40
2017,08,03,00,10,24.40
2017,08,03,00,11,24.40
2017,08,03,00,12,24.30
2017,08,03,00,13,24.30
2017,08,03,00,14,24.20
2017,08,03,00,15,24.10
2017,08,03,00,16,24.10
2017,08,03,00,17,24.10
2017,08,03,00,18,24.10
2017,08,03,00,19,24.10
2017,08,03,00,20,24.00
2017,08,03,00,21,23.90
2017,08,03,00,22,23.90
2017,08,03,00,23,23.90
2017,08,03,00,24,23.80
2017,08,03,00,25,23.80
2017,08,03,00,26,23.70
2017,08,03,00,27,23.70
2017,08,03,00,28,23.70
2017,08,03,00,29,23.70
2017,08,03,00,30,23.70
2017,08,03,00,31,23.70
2017,08,03,00,32,23.70
2017,08,03,00,33,23.70
2017,08,03,00,34,23.60
2017,08,03,00,35,23.60
2017,08,03,00,36,23.60
2017,08,03,00,37,23.60
2017,08,03,00,38,23.60
2017,08,03,00,39,23.40
2017,08,03,00,40,23.40
2017,08,03,00,41,23.50
2017,08,03,00,42,23.60
2017,08,03,00,43,23.60
2017,08,03,00,44,23.60
2017,08,03,00,45,23.70
2017,08,03,00,46,23.70
2017,08,03,00,47,23.70
2017,08,03,00,48,23.70
2017,08,03,00,49,23.70
2017,08,03,00,50,23.70
2017,08,03,00,51,23.60
2017,08,03,00,52,23.60
2017,08,03,00,53,23.60
2017,08,03,00,54,23.60
2017,08,03,00,55,23.60
2017,08,03,00,56,23.60
2017,08,03,00,57,23.40
2017,08,03,00,58,23.40
2017,08,03,00,59,23.50
2017,08,03,01,00,23.60
2017,08,03,01,01,23.60
2017,08,03,01,02,23.60
2017,08,03,01,03,23.60
2017,08,03,01,04,23.60
2017,08,03,01,05,23.60
2017,08,03,01,06,23.60
2017,08,03,01,07,23.60
2017,08,03,01,08,23.60
2017,08,03,01,09,23.60
2017,08,03,01,10,23.60
2017,08,03,01,11,23.60
2017,08,03,01,12,23.60
2017,08,03,01,13,23.60
2017,08,03,01,14,23.50
2017,08,03,01,15,23.40
2017,08,03,01,16,23.40
2017,08,03,01,17,23.40
2017,08,03,01,18,23.50
2017,08,03,01,19,23.60
2017,08,03,01,20,23.60
2017,08,03,01,21,23.60
2017,08,03,01,22,23.50
2017,08,03,01,23,23.40
2017,08,03,01,24,23.40
2017,08,03,01,25,23.40
2017,08,03,01,26,23.40
2017,08,03,01,27,23.40
2017,08,03,01,28,23.40
2017,08,03,01,29,23.30
2017,08,03,01,30,23.30
2017,08,03,01,31,23.30
2017,08,03,01,32,23.30
2017,08,03,01,33,23.30
2017,08,03,01,34,23.30
2017,08,03,01,35,23.30
2017,08,03,01,36,23.30
2017,08,03,01,37,23.30
2017,08,03,01,38,23.30
2017,08,03,01,39,23.30
2017,08,03,01,40,23.30
2017,08,03,01,41,23.30
2017,08,03,01,42,23.30
2017,08,03,01,43,23.30
2017,08,03,01,44,23.30
2017,08,03,01,45,23.30
2017,08,03,01,46,23.30
2017,08,03,01,47,23.30
2017,08,03,01,48,23.30
2017,08,03,01,49,23.30
2017,08,03,01,50,23.30
2017,08,03,01,51,23.30
2017,08,03,01,52,23.30
2017,08,03,01,53,23.20
2017,08,03,01,54,23.20
2017,08,03,01,55,23.20
2017,08,03,01,56,23.10
2017,08,03,01,57,23.10
2017,08,03,01,58,22.90
2017,08,03,01,59,22.90
2017,08,03,02,00,22.90
2017,08,03,02,01,22.90
2017,08,03,02,02,22.90
2017,08,03,02,03,22.90
2017,08,03,02,04,22.90
2017,08,03,02,05,22.90
2017,08,03,02,06,22.90
2017,08,03,02,07,22.90
2017,08,03,02,08,22.90
2017,08,03,02,09,22.80
2017,08,03,02,10,22.80
2017,08,03,02,11,22.80
2017,08,03,02,12,22.80
2017,08,03,02,13,22.80
2017,08,03,02,14,22.70
2017,08,03,02,15,22.70
2017,08,03,02,16,22.70
2017,08,03,02,17,22.70
2017,08,03,02,18,22.60
2017,08,03,02,19,22.60
2017,08,03,02,20,22.60
2017,08,03,02,21,22.60
2017,08,03,02,22,22.60
2017,08,03,02,23,22.60
2017,08,03,02,24,22.60
2017,08,03,02,25,22.50
2017,08,03,02,26,22.50
2017,08,03,02,27,22.50
2017,08,03,02,28,22.50
2017,08,03,02,29,22.50
2017,08,03,02,30,22.50
2017,08,03,02,31,22.50
2017,08,03,02,32,22.60
2017,08,03,02,33,22.60
2017,08,03,02,34,22.60
2017,08,03,02,35,22.60
2017,08,03,02,36,22.60
2017,08,03,02,37,22.70
2017,08,03,02,38,22.70
2017,08,03,02,39,22.70
2017,08,03,02,40,22.60
2017,08,03,02,41,22.60
2017,08,03,02,42,22.60
2017,08,03,02,43,22.50
2017,08,03,02,44,22.50
2017,08,03,02,45,22.40
2017,08,03,02,46,22.40
2017,08,03,02,47,22.40
2017,08,03,02,48,22.40
2017,08,03,02,49,22.40
2017,08,03,02,50,22.40
2017,08,03,02,51,22.40
2017,08,03,02,52,22.50
2017,08,03,02,53,22.50
2017,08,03,02,54,22.50
2017,08,03,02,55,22.50
2017,08,03,02,56,22.50
2017,08,03,02,57,22.50
2017,08,03,02,58,22.50
2017,08,03,02,59,22.50
2017,08,03,03,00,22.50
2017,08,03,03,01,22.40
2017,08,03,03,02,22.40
2017,08,03,03,03,22.40
2017,08,03,03,04,22.40
2017,08,03,03,05,22.40
2017,08,03,03,06,22.40
2017,08,03,03,07,22.40
2017,08,03,03,08,22.40
2017,08,03,03,09,22.40
2017,08,03,03,10,22.30
2017,08,03,03,11,22.30
2017,08,03,03,12,22.30
2017,08,03,03,13,22.30
2017,08,03,03,14,22.30
2017,08,03,03,15,22.20
2017,08,03,03,16,22.20
2017,08,03,03,17,22.20
2017,08,03,03,18,22.20
2017,08,03,03,19,22.10
2017,08,03,03,20,22.10
2017,08,03,03,21,22.10
2017,08,03,03,22,22.10
2017,08,03,03,23,22.00
2017,08,03,03,24,22.00
2017,08,03,03,25,21.90
2017,08,03,03,26,21.90
2017,08,03,03,27,21.80
2017,08,03,03,28,21.80
2017,08,03,03,29,21.80
2017,08,03,03,30,21.70
2017,08,03,03,31,21.70
2017,08,03,03,32,21.70
2017,08,03,03,33,21.60
2017,08,03,03,34,21.60
2017,08,03,03,35,21.60
2017,08,03,03,36,21.60
2017,08,03,03,37,21.60
2017,08,03,03,38,21.60
2017,08,03,03,39,21.60
2017,08,03,03,40,21.50
2017,08,03,03,41,21.40
2017,08,03,03,42,21.40
2017,08,03,03,43,21.30
2017,08,03,03,44,21.30
2017,08,03,03,45,21.30
2017,08,03,03,46,21.30
2017,08,03,03,47,21.20
2017,08,03,03,48,21.20
2017,08,03,03,49,21.10
2017,08,03,03,50,21.10
2017,08,03,03,51,21.10
2017,08,03,03,52,21.00
2017,08,03,03,53,21.00
2017,08,03,03,54,21.00
2017,08,03,03,55,21.00
2017,08,03,03,56,21.00
2017,08,03,03,57,21.00
2017,08,03,03,58,21.00
2017,08,03,03,59,21.00
2017,08,03,04,00,20.90
2017,08,03,04,01,20.90
2017,08,03,04,02,20.90
2017,08,03,04,03,20.90
2017,08,03,04,04,20.90
2017,08,03,04,05,20.90
2017,08,03,04,06,20.80
2017,08,03,04,07,20.80
2017,08,03,04,08,20.80
2017,08,03,04,09,20.90
2017,08,03,04,10,20.90
2017,08,03,04,11,20.90
2017,08,03,04,12,20.90
2017,08,03,04,13,20.90
2017,08,03,04,14,20.90
2017,08,03,04,15,20.90
2017,08,03,04,16,21.00
2017,08,03,04,17,21.00
2017,08,03,04,18,21.00
2017,08,03,04,19,21.00
2017,08,03,04,20,21.00
2017,08,03,04,21,21.00
2017,08,03,04,22,21.00
2017,08,03,04,23,21.00
2017,08,03,04,24,21.00
2017,08,03,04,25,21.00
2017,08,03,04,26,21.00
2017,08,03,04,27,21.00
2017,08,03,04,28,21.00
2017,08,03,04,29,20.90
2017,08,03,04,30,20.90
2017,08,03,04,31,20.90
2017,08,03,04,32,20.80
2017,08,03,04,33,20.80
2017,08,03,04,34,20.80
2017,08,03,04,35,20.70
2017,08,03,04,36,20.70
2017,08,03,04,37,20.70
2017,08,03,04,38,20.60
2017,08,03,04,39,20.60
2017,08,03,04,40,20.60
2017,08,03,04,41,20.60
2017,08,03,04,42,20.60
2017,08,03,04,43,20.50
2017,08,03,04,44,20.50
2017,08,03,04,45,20.50
2017,08,03,04,46,20.50
2017,08,03,04,47,20.40
2017,08,03,04,48,20.40
2017,08,03,04,49,20.40
2017,08,03,04,50,20.40
2017,08,03,04,51,20.40
2017,08,03,04,52,20.30
2017,08,03,04,53,20.30
2017,08,03,04,54,20.30
2017,08,03,04,55,20.30
2017,08,03,04,56,20.30
2017,08,03,04,57,20.30
2017,08,03,04,58,20.30
2017,08,03,04,59,20.30
2017,08,03,05,00,20.30
2017,08,03,05,01,20.30
2017,08,03,05,02,20.30
2017,08,03,05,03,20.30
2017,08,03,05,04,20.30
2017,08,03,05,05,20.30
2017,08,03,05,06,20.30
2017,08,03,05,07,20.30
2017,08,03,05,08,20.40
2017,08,03,05,09,20.40
2017,08,03,05,10,20.40
2017,08,03,05,11,20.40
2017,08,03,05,12,20.40
2017,08,03,05,13,20.40
2017,08,03,05,14,20.30
2017,08,03,05,15,20.30
2017,08,03,05,16,20.30
2017,08,03,05,17,20.30
2017,08,03,05,18,20.30
2017,08,03,05,19,20.30
2017,08,03,05,20,20.30
2017,08,03,05,21,20.30
2017,08,03,05,22,20.30
2017,08,03,05,23,20.20
2017,08,03,05,24,20.20
2017,08,03,05,25,20.20
2017,08,03,05,26,20.20
2017,08,03,05,27,20.20
2017,08,03,05,28,20.20
2017,08,03,05,29,20.20
2017,08,03,05,30,20.20
2017,08,03,05,31,20.20
2017,08,03,05,32,20.20
2017,08,03,05,33,20.20
2017,08,03,05,34,20.20
2017,08,03,05,35,20.20
2017,08,03,05,36,20.20
2017,08,03,05,37,20.20
2017,08,03,05,38,20.20
2017,08,03,05,39,20.20
2017,08,03,05,40,20.10
2017,08,03,05,41,20.10
2017,08,03,05,42,20.10
2017,08,03,05,43,20.10
2017,08,03,05,44,20.00
2017,08,03,05,45,19.90
2017,08,03,05,46,19.90
2017,08,03,05,47,19.90
2017,08,03,05,48,19.90
2017,08,03,05,49,19.90
2017,08,03,05,50,19.90
2017,08,03,05,51,19.90
2017,08,03,05,52,19.90
2017,08,03,05,53,19.90
2017,08,03,05,54,19.90
2017,08,03,05,55,19.90
2017,08,03,05,56,19.90
2017,08,03,05,57,19.90
2017,08,03,05,58,19.90
2017,08,03,05,59,19.80
2017,08,03,06,00,19.80
2017,08,03,06,01,19.80
2017,08,03,06,02,19.80
2017,08,03,06,03,19.80
2017,08,03,06,04,19.70
2017,08,03,06,05,19.70
2017,08,03,06,06,19.70
2017,08,03,06,07,19.70
2017,08,03,06,08,19.70
2017,08,03,06,09,19.60
2017,08,03,06,10,19.60
2017,08,03,06,11,19.60
2017,08,03,06,12,19.50
2017,08,03,06,13,19.50
2017,08,03,06,14,19.50
2017,08,03,06,15,19.50
2017,08,03,06,16,19.50
2017,08,03,06,17,19.50
2017,08,03,06,18,19.40
2017,08,03,06,19,19.40
2017,08,03,06,20,19.40
2017,08,03,06,21,19.40
2017,08,03,06,22,19.40
2017,08,03,06,23,19.40
2017,08,03,06,24,19.40
2017,08,03,06,25,19.40
2017,08,03,06,26,19.40
2017,08,03,06,27,19.40
2017,08,03,06,28,19.40
2017,08,03,06,29,19.40
2017,08,03,06,30,19.40
2017,08,03,06,31,19.40
2017,08,03,06,32,19.40
2017,08,03,06,33,19.30
2017,08,03,06,34,19.30
2017,08,03,06,35,19.30
2017,08,03,06,36,19.30
2017,08,03,06,37,19.20
2017,08,03,06,38,19.20
2017,08,03,06,39,19.20
2017,08,03,06,40,19.20
2017,08,03,06,41,19.20
2017,08,03,06,42,19.20
2017,08,03,06,43,19.10
2017,08,03,06,44,19.10
2017,08,03,06,45,19.10
2017,08,03,06,46,19.20
2017,08,03,06,47,19.20
2017,08,03,06,48,19.20
2017,08,03,06,49,19.20
2017,08,03,06,50,19.20
2017,08,03,06,51,19.30
2017,08,03,06,52,19.30
2017,08,03,06,53,19.30
2017,08,03,06,54,19.30
2017,08,03,06,55,19.40
2017,08,03,06,56,19.40
2017,08,03,06,57,19.40
2017,08,03,06,58,19.40
2017,08,03,06,59,19.40
2017,08,03,07,00,19.50
2017,08,03,07,01,19.50
2017,08,03,07,02,19.50
2017,08,03,07,03,19.50
2017,08,03,07,04,19.50
2017,08,03,07,05,19.50
2017,08,03,07,06,19.60
2017,08,03,07,07,19.60
2017,08,03,07,08,19.60
2017,08,03,07,09,19.60
2017,08,03,07,10,19.60
2017,08,03,07,11,19.70
2017,08,03,07,12,19.70
2017,08,03,07,13,19.70
2017,08,03,07,14,19.80
2017,08,03,07,15,19.80
2017,08,03,07,16,19.80
2017,08,03,07,17,19.90
2017,08,03,07,18,19.90
2017,08,03,07,19,19.90
2017,08,03,07,20,19.90
2017,08,03,07,21,19.90
2017,08,03,07,22,20.10
2017,08,03,07,23,20.10
2017,08,03,07,24,20.20
2017,08,03,07,25,20.20
2017,08,03,07,26,20.30
2017,08,03,07,27,20.40
2017,08,03,07,28,20.50
2017,08,03,07,29,20.50
2017,08,03,07,30,20.60
2017,08,03,07,31,20.70
2017,08,03,07,32,20.80
2017,08,03,07,33,20.90
2017,08,03,07,34,21.00
2017,08,03,07,35,21.10
2017,08,03,07,36,21.20
2017,08,03,07,37,21.20
2017,08,03,07,38,21.30
2017,08,03,07,39,21.30
2017,08,03,07,40,21.30
2017,08,03,07,41,21.30
2017,08,03,07,42,21.40
2017,08,03,07,43,21.40
2017,08,03,07,44,21.40
2017,08,03,07,45,21.60
2017,08,03,07,46,21.50
2017,08,03,07,47,21.60
2017,08,03,07,48,21.60
2017,08,03,07,49,21.60
2017,08,03,07,50,21.60
2017,08,03,07,51,21.50
2017,08,03,07,52,21.50
2017,08,03,07,53,21.60
2017,08,03,07,54,21.60
2017,08,03,07,55,21.60
2017,08,03,07,56,21.60
2017,08,03,07,57,21.60
2017,08,03,07,58,21.60
2017,08,03,07,59,21.60
2017,08,03,08,00,21.60
2017,08,03,08,01,21.60
2017,08,03,08,02,21.60
2017,08,03,08,03,21.60
2017,08,03,08,04,21.60
2017,08,03,08,05,21.60
2017,08,03,08,06,21.60
2017,08,03,08,07,21.60
2017,08,03,08,08,21.60
2017,08,03,08,09,21.60
2017,08,03,08,10,21.60
2017,08,03,08,11,21.70
2017,08,03,08,12,21.70
2017,08,03,08,13,21.70
2017,08,03,08,14,21.70
2017,08,03,08,15,21.70
2017,08,03,08,16,21.70
2017,08,03,08,17,21.80
2017,08,03,08,18,21.80
2017,08,03,08,19,21.90
2017,08,03,08,20,21.90
2017,08,03,08,21,22.00
2017,08,03,08,22,22.00
2017,08,03,08,23,22.10
2017,08,03,08,24,22.10
2017,08,03,08,25,22.20
2017,08,03,08,26,22.20
2017,08,03,08,27,22.30
2017,08,03,08,28,22.40
2017,08,03,08,29,22.50
2017,08,03,08,30,22.60
2017,08,03,08,31,22.60
2017,08,03,08,32,22.70
2017,08,03,08,33,22.80
2017,08,03,08,34,22.90
2017,08,03,08,35,23.00
2017,08,03,08,36,23.10
2017,08,03,08,37,23.20
2017,08,03,08,38,23.20
2017,08,03,08,39,23.20
2017,08,03,08,40,23.30
2017,08,03,08,41,23.20
2017,08,03,08,42,23.20
2017,08,03,08,43,23.20
2017,08,03,08,44,23.20
2017,08,03,08,45,23.20
2017,08,03,08,46,23.20
2017,08,03,08,47,23.30
2017,08,03,08,48,23.30
2017,08,03,08,49,23.20
2017,08,03,08,50,23.10
2017,08,03,08,51,23.10
2017,08,03,08,52,23.20
2017,08,03,08,53,23.10
2017,08,03,08,54,23.10
2017,08,03,08,55,23.10
2017,08,03,08,56,23.10
2017,08,03,08,57,23.00
2017,08,03,08,58,22.90
2017,08,03,08,59,22.90
2017,08,03,09,00,22.80
2017,08,03,09,01,22.80
2017,08,03,09,02,22.80
2017,08,03,09,03,22.70
2017,08,03,09,04,22.70
2017,08,03,09,05,22.60
2017,08,03,09,06,22.60
2017,08,03,09,07,22.50
2017,08,03,09,08,22.60
2017,08,03,09,09,22.60
2017,08,03,09,10,22.60
2017,08,03,09,11,22.70
2017,08,03,09,12,22.60
2017,08,03,09,13,22.60
2017,08,03,09,14,22.60
2017,08,03,09,15,22.60
2017,08,03,09,16,22.70
2017,08,03,09,17,22.70
2017,08,03,09,18,22.80
2017,08,03,09,19,22.80
2017,08,03,09,20,22.80
2017,08,03,09,21,22.80
2017,08,03,09,22,22.80
2017,08,03,09,23,22.70
2017,08,03,09,24,22.70
2017,08,03,09,25,22.60
2017,08,03,09,26,22.60
2017,08,03,09,27,22.50
2017,08,03,09,28,22.30
2017,08,03,09,29,22.30
2017,08,03,09,30,22.30
2017,08,03,09,31,22.30
2017,08,03,09,32,22.30
2017,08,03,09,33,22.40
2017,08,03,09,34,22.50
2017,08,03,09,35,22.60
2017,08,03,09,36,22.70
2017,08,03,09,37,22.80
2017,08,03,09,38,22.90
2017,08,03,09,39,22.90
2017,08,03,09,40,22.80
2017,08,03,09,41,22.70
2017,08,03,09,42,22.60
2017,08,03,09,43,22.50
2017,08,03,09,44,22.40
2017,08,03,09,45,22.40
2017,08,03,09,46,22.30
2017,08,03,09,47,22.20
2017,08,03,09,48,22.30
2017,08,03,09,49,22.20
2017,08,03,09,50,22.10
2017,08,03,09,51,22.00
2017,08,03,09,52,21.90
2017,08,03,09,53,21.90
2017,08,03,09,54,21.90
2017,08,03,09,55,21.90
2017,08,03,09,56,21.80
2017,08,03,09,57,21.80
2017,08,03,09,58,21.90
2017,08,03,09,59,22.00
2017,08,03,10,00,22.00
2017,08,03,10,01,22.10
2017,08,03,10,02,22.10
2017,08,03,10,03,22.20
2017,08,03,10,04,22.30
2017,08,03,10,05,22.30
2017,08,03,10,06,22.30
2017,08,03,10,07,22.20
2017,08,03,10,08,22.20
2017,08,03,10,09,22.20
2017,08,03,10,10,22.10
2017,08,03,10,11,22.20
2017,08,03,10,12,22.20
2017,08,03,10,13,22.30
2017,08,03,10,14,22.40
2017,08,03,10,15,22.40
2017,08,03,10,16,22.30
2017,08,03,10,17,22.30
2017,08,03,10,18,22.20
2017,08,03,10,19,22.20
2017,08,03,10,20,22.20
2017,08,03,10,21,22.20
2017,08,03,10,22,22.20
2017,08,03,10,23,22.30
2017,08,03,10,24,22.40
2017,08,03,10,25,22.50
2017,08,03,10,26,22.50
2017,08,03,10,27,22.50
2017,08,03,10,28,22.50
2017,08,03,10,29,22.60
2017,08,03,10,30,22.60
2017,08,03,10,31,22.60
2017,08,03,10,32,22.60
2017,08,03,10,33,22.70
2017,08,03,10,34,22.80
2017,08,03,10,35,22.80
2017,08,03,10,36,22.90
2017,08,03,10,37,22.90
2017,08,03,10,38,22.90
2017,08,03,10,39,22.90
2017,08,03,10,40,22.90
2017,08,03,10,41,22.90
2017,08,03,10,42,22.90
2017,08,03,10,43,22.90
2017,08,03,10,44,22.90
2017,08,03,10,45,22.90
2017,08,03,10,46,22.90
2017,08,03,10,47,22.90
2017,08,03,10,48,22.90
2017,08,03,10,49,22.90
2017,08,03,10,50,22.90
2017,08,03,10,51,22.80
2017,08,03,10,52,22.70
2017,08,03,10,53,22.60
2017,08,03,10,54,22.70
2017,08,03,10,55,22.70
2017,08,03,10,56,22.80
2017,08,03,10,57,22.80
2017,08,03,10,58,22.90
2017,08,03,10,59,22.90
2017,08,03,11,00,22.90
2017,08,03,11,01,22.90
2017,08,03,11,02,23.10
2017,08,03,11,03,23.10
2017,08,03,11,04,23.20
2017,08,03,11,05,23.30
2017,08,03,11,06,23.30
2017,08,03,11,07,23.30
2017,08,03,11,08,23.30
2017,08,03,11,09,23.30
2017,08,03,11,10,23.30
2017,08,03,11,11,23.20
2017,08,03,11,12,23.20
2017,08,03,11,13,23.20
2017,08,03,11,14,23.20
2017,08,03,11,15,23.20
2017,08,03,11,16,23.20
2017,08,03,11,17,23.20
2017,08,03,11,18,23.30
2017,08,03,11,19,23.30
2017,08,03,11,20,23.30
2017,08,03,11,21,23.30
2017,08,03,11,22,23.30
2017,08,03,11,23,23.30
2017,08,03,11,24,23.40
2017,08,03,11,25,23.50
2017,08,03,11,26,23.50
2017,08,03,11,27,23.40
2017,08,03,11,28,23.30
2017,08,03,11,29,23.30
2017,08,03,11,30,23.30
2017,08,03,11,31,23.30
2017,08,03,11,32,23.10
2017,08,03,11,33,23.10
2017,08,03,11,34,23.10
2017,08,03,11,35,23.20
2017,08,03,11,36,23.30
2017,08,03,11,37,23.30
2017,08,03,11,38,23.30
2017,08,03,11,39,23.30
2017,08,03,11,40,23.30
2017,08,03,11,41,23.40
2017,08,03,11,42,23.50
2017,08,03,11,43,23.60
2017,08,03,11,44,23.60
2017,08,03,11,45,23.60
2017,08,03,11,46,23.60
2017,08,03,11,47,23.60
2017,08,03,11,48,23.60
2017,08,03,11,49,23.70
2017,08,03,11,50,23.70
2017,08,03,11,51,23.70
2017,08,03,11,52,23.70
2017,08,03,11,53,23.60
2017,08,03,11,54,23.50
2017,08,03,11,55,23.40
2017,08,03,11,56,23.40
2017,08,03,11,57,23.50
2017,08,03,11,58,23.60
2017,08,03,11,59,23.60
2017,08,03,12,00,23.40
2017,08,03,12,01,23.30
2017,08,03,12,02,23.40
2017,08,03,12,03,23.40
2017,08,03,12,04,23.30
2017,08,03,12,05,23.30
2017,08,03,12,06,23.40
2017,08,03,12,07,23.40
2017,08,03,12,08,23.40
2017,08,03,12,09,23.40
2017,08,03,12,10,23.40
2017,08,03,12,11,23.40
2017,08,03,12,12,23.40
2017,08,03,12,13,23.50
2017,08,03,12,14,23.60
2017,08,03,12,15,23.70
2017,08,03,12,16,23.70
2017,08,03,12,17,23.90
2017,08,03,12,18,23.90
2017,08,03,12,19,23.80
2017,08,03,12,20,23.70
2017,08,03,12,21,23.70
2017,08,03,12,22,23.60
2017,08,03,12,23,23.50
2017,08,03,12,24,23.40
2017,08,03,12,25,23.50
2017,08,03,12,26,23.40
2017,08,03,12,27,23.40
2017,08,03,12,28,23.30
2017,08,03,12,29,23.30
2017,08,03,12,30,23.30
2017,08,03,12,31,23.30
2017,08,03,12,32,23.30
2017,08,03,12,33,23.30
2017,08,03,12,34,23.40
2017,08,03,12,35,23.40
2017,08,03,12,36,23.40
2017,08,03,12,37,23.40
2017,08,03,12,38,23.50
2017,08,03,12,39,23.60
2017,08,03,12,40,23.40
2017,08,03,12,41,23.40
2017,08,03,12,42,23.50
2017,08,03,12,43,23.60
2017,08,03,12,44,23.60
2017,08,03,12,45,23.60
2017,08,03,12,46,23.50
2017,08,03,12,47,23.40
2017,08,03,12,48,23.30
2017,08,03,12,49,23.30
2017,08,03,12,50,23.30
2017,08,03,12,51,23.30
2017,08,03,12,52,23.30
2017,08,03,12,53,23.30
2017,08,03,12,54,23.30
2017,08,03,12,55,23.30
2017,08,03,12,56,23.40
2017,08,03,12,57,23.40
2017,08,03,12,58,23.30
2017,08,03,12,59,23.30
2017,08,03,13,00,23.30
2017,08,03,13,01,23.30
2017,08,03,13,02,23.30
2017,08,03,13,03,23.40
2017,08,03,13,04,23.50
2017,08,03,13,05,23.50
2017,08,03,13,06,23.40
2017,08,03,13,07,23.40
2017,08,03,13,08,23.50
2017,08,03,13,09,23.60
2017,08,03,13,10,23.70
2017,08,03,13,11,23.70
2017,08,03,13,12,23.70
2017,08,03,13,13,23.70
2017,08,03,13,14,23.60
2017,08,03,13,15,23.60
2017,08,03,13,16,23.60
2017,08,03,13,17,23.60
2017,08,03,13,18,23.60
2017,08,03,13,19,23.70
2017,08,03,13,20,23.60
2017,08,03,13,21,23.60
2017,08,03,13,22,23.60
2017,08,03,13,23,23.60
2017,08,03,13,24,23.60
2017,08,03,13,25,23.60
2017,08,03,13,26,23.70
2017,08,03,13,27,23.70
2017,08,03,13,28,23.80
2017,08,03,13,29,23.90
2017,08,03,13,30,24.10
2017,08,03,13,31,24.10
2017,08,03,13,32,24.10
2017,08,03,13,33,24.10
2017,08,03,13,34,24.10
2017,08,03,13,35,24.10
2017,08,03,13,36,24.10
2017,08,03,13,37,24.10
2017,08,03,13,38,24.10
2017,08,03,13,39,24.10
2017,08,03,13,40,24.10
2017,08,03,13,41,24.00
2017,08,03,13,42,23.90
2017,08,03,13,43,24.10
2017,08,03,13,44,24.00
2017,08,03,13,45,23.90
2017,08,03,13,46,23.80
2017,08,03,13,47,23.80
2017,08,03,13,48,23.80
2017,08,03,13,49,23.80
2017,08,03,13,50,23.80
2017,08,03,13,51,23.90
2017,08,03,13,52,24.00
2017,08,03,13,53,24.10
2017,08,03,13,54,24.30
2017,08,03,13,55,24.50
2017,08,03,13,56,24.70
2017,08,03,13,57,24.80
2017,08,03,13,58,24.80
2017,08,03,13,59,25.00
2017,08,03,14,00,25.10
2017,08,03,14,01,25.20
2017,08,03,14,02,25.10
2017,08,03,14,03,25.00
2017,08,03,14,04,24.80
2017,08,03,14,05,24.80
2017,08,03,14,06,24.80
2017,08,03,14,07,24.80
2017,08,03,14,08,24.70
2017,08,03,14,09,24.60
2017,08,03,14,10,24.50
2017,08,03,14,11,24.60
2017,08,03,14,12,24.60
2017,08,03,14,13,24.50
2017,08,03,14,14,24.40
2017,08,03,14,15,24.40
2017,08,03,14,16,24.40
2017,08,03,14,17,24.50
2017,08,03,14,18,24.50
2017,08,03,14,19,24.50
2017,08,03,14,20,24.50
2017,08,03,14,21,24.50
2017,08,03,14,22,24.60
2017,08,03,14,23,24.70
2017,08,03,14,24,24.80
2017,08,03,14,25,24.80
2017,08,03,14,26,24.90
2017,08,03,14,27,24.90
2017,08,03,14,28,24.90
2017,08,03,14,29,24.90
2017,08,03,14,30,24.90
2017,08,03,14,31,24.90
2017,08,03,14,32,24.90
2017,08,03,14,33,24.90
2017,08,03,14,34,24.80
2017,08,03,14,35,24.80
2017,08,03,14,36,24.70
2017,08,03,14,37,24.60
2017,08,03,14,38,24.60
2017,08,03,14,39,24.70
2017,08,03,14,40,24.60
2017,08,03,14,41,24.60
2017,08,03,14,42,24.60
2017,08,03,14,43,24.60
2017,08,03,14,44,24.70
2017,08,03,14,45,24.70
2017,08,03,14,46,24.80
2017,08,03,14,47,24.80
2017,08,03,14,48,24.90
2017,08,03,14,49,24.90
2017,08,03,14,50,24.90
2017,08,03,14,51,24.90
2017,08,03,14,52,24.90
2017,08,03,14,53,25.00
2017,08,03,14,54,25.00
2017,08,03,14,55,25.00
2017,08,03,14,56,25.10
2017,08,03,14,57,25.10
2017,08,03,14,58,25.10
2017,08,03,14,59,25.10
2017,08,03,15,00,25.10
2017,08,03,15,01,25.20
2017,08,03,15,02,25.20
2017,08,03,15,03,25.20
2017,08,03,15,04,25.20
2017,08,03,15,05,25.30
2017,08,03,15,06,25.30
2017,08,03,15,07,25.40
2017,08,03,15,08,25.40
2017,08,03,15,09,25.40
2017,08,03,15,10,25.40
2017,08,03,15,11,25.40
2017,08,03,15,12,25.40
2017,08,03,15,13,25.40
2017,08,03,15,14,25.40
2017,08,03,15,15,25.40
2017,08,03,15,16,25.40
2017,08,03,15,17,25.40
2017,08,03,15,18,25.40
2017,08,03,15,19,25.40
2017,08,03,15,20,25.40
2017,08,03,15,21,25.30
2017,08,03,15,22,25.30
2017,08,03,15,23,25.30
2017,08,03,15,24,25.30
2017,08,03,15,25,25.30
2017,08,03,15,26,25.40
2017,08,03,15,27,25.40
2017,08,03,15,28,25.40
2017,08,03,15,29,25.40
2017,08,03,15,30,25.40
2017,08,03,15,31,25.40
2017,08,03,15,32,25.50
2017,08,03,15,33,25.60
2017,08,03,15,34,25.70
2017,08,03,15,35,25.80
2017,08,03,15,36,25.80
2017,08,03,15,37,25.90
2017,08,03,15,38,25.90
2017,08,03,15,39,25.90
2017,08,03,15,40,25.90
2017,08,03,15,41,25.90
2017,08,03,15,42,26.00
2017,08,03,15,43,26.00
2017,08,03,15,44,26.00
2017,08,03,15,45,26.00
2017,08,03,15,46,26.00
2017,08,03,15,47,26.00
2017,08,03,15,48,26.00
2017,08,03,15,49,26.10
2017,08,03,15,50,26.10
2017,08,03,15,51,26.10
2017,08,03,15,52,26.10
2017,08,03,15,53,26.10
2017,08,03,15,54,26.00
2017,08,03,15,55,25.90
2017,08,03,15,56,25.90
2017,08,03,15,57,25.90
2017,08,03,15,58,25.90
2017,08,03,15,59,25.90
2017,08,03,16,00,25.90
2017,08,03,16,01,26.00
2017,08,03,16,02,26.00
2017,08,03,16,03,26.00
2017,08,03,16,04,26.00
2017,08,03,16,05,26.00
2017,08,03,16,06,26.00
2017,08,03,16,07,26.00
2017,08,03,16,08,26.10
2017,08,03,16,09,26.10
2017,08,03,16,10,26.00
2017,08,03,16,11,25.90
2017,08,03,16,12,25.90
2017,08,03,16,13,25.90
2017,08,03,16,14,25.90
2017,08,03,16,15,25.90
2017,08,03,16,16,25.90
2017,08,03,16,17,25.80
2017,08,03,16,18,25.80
2017,08,03,16,19,25.80
2017,08,03,16,20,25.70
2017,08,03,16,21,25.70
2017,08,03,16,22,25.70
2017,08,03,16,23,25.70
2017,08,03,16,24,25.70
2017,08,03,16,25,25.80
2017,08,03,16,26,25.80
2017,08,03,16,27,25.90
2017,08,03,16,28,25.90
2017,08,03,16,29,25.80
2017,08,03,16,30,25.80
2017,08,03,16,31,25.80
2017,08,03,16,32,25.70
2017,08,03,16,33,25.70
2017,08,03,16,34,25.80
2017,08,03,16,35,25.70
2017,08,03,16,36,25.80
2017,08,03,16,37,25.80
2017,08,03,16,38,25.80
2017,08,03,16,39,25.70
2017,08,03,16,40,25.70
2017,08,03,16,41,25.70
2017,08,03,16,42,25.70
2017,08,03,16,43,25.80
2017,08,03,16,44,25.90
2017,08,03,16,45,25.90
2017,08,03,16,46,26.00
2017,08,03,16,47,26.20
2017,08,03,16,48,26.30
2017,08,03,16,49,26.30
2017,08,03,16,50,26.30
2017,08,03,16,51,26.40
2017,08,03,16,52,26.40
2017,08,03,16,53,26.40
2017,08,03,16,54,26.30
2017,08,03,16,55,26.30
2017,08,03,16,56,26.30
2017,08,03,16,57,26.30
2017,08,03,16,58,26.30
2017,08,03,16,59,26.30
2017,08,03,17,00,26.20
2017,08,03,17,01,26.20
2017,08,03,17,02,26.20
2017,08,03,17,03,26.20
2017,08,03,17,04,26.20
2017,08,03,17,05,26.30
2017,08,03,17,06,26.30
2017,08,03,17,07,26.30
2017,08,03,17,08,26.30
2017,08,03,17,09,26.40
2017,08,03,17,10,26.40
2017,08,03,17,11,26.40
2017,08,03,17,12,26.40
2017,08,03,17,13,26.30
2017,08,03,17,14,26.30
2017,08,03,17,15,26.30
2017,08,03,17,16,26.30
2017,08,03,17,17,26.30
2017,08,03,17,18,26.30
2017,08,03,17,19,26.30